Content
SEND FEEDBACK

Daily
Averages
Monthly
Summary
France

TOULOUSE, FRANCE


Home > Europe > France
Elevation: 538 feet     Latitude: 43 33N     Longitude: 001 23E

WEATHER
 
SELECT A DAY
Number of Records: 277,573;   Date Range: 7/1/96 - 4/21/13
 
SHARE

PRINT THIS DATA

[ ← Previous Day ]
WEATHER ALMANAC - JANUARY 31, 2013
[ Next Day → ]
[ °C ]   °F
Weather ElementAverageHighLow
Temperature54.2 °F62.6 °F (1:00 pm)44.6 °F (5:30 am)
Dewpoint49.7 °F53.6 °F (2:30 pm)42.8 °F (5:30 am)
Humidity85 %100 % (7:00 am)57 % (1:00 pm)
Barometer30.36 in30.42 in (11:00 am)30.30 in (10:30 pm)
Wind Speed5 mph12.7 mph (1:30 pm)
Weather ElementAverage
Visibility6.4 mi
Wind DirectionSSW (214.7 °)

Weather ElementTotal
Precipitation---
Heating Degree Days11.4 (Base 65)
Growing Degree Days3.6 (Base 50)
Averaged from 51 records on January 31, 2013
WEATHER CONDITIONS BREAKOUT
WIND DIRECTION BREAKOUT
WEATHER BY HOUR - JANUARY 31, 2013
[ °C ]   °F
Local TimeTemperatureDewpointHumidityBarometerVisibilityWind DirectionWind SpeedGust SpeedPrecipitationEventsConditions
12:30 AM53.6 °F50.0 °F88 %30.39 in6.2 miSW (220°)3.5 mphOvercast
1:00 AM53.0 °F49.0 °F83 %30.41 in22.0 miSSW (210°)3.5 mphClear
1:00 AM53.6 °F50.0 °F88 %30.39 in6.2 miSSW (210°)3.5 mphOvercast
1:30 AM51.8 °F50.0 °F94 %30.39 in6.2 miSouth (180°)3.5 mphOvercast
2:00 AM53.6 °F50.0 °F88 %30.39 in6.2 miCalmOvercast
2:30 AM51.8 °F48.2 °F88 %30.39 in6.2 miWNW (290°)2.3 mphOvercast
3:00 AM51.8 °F48.2 °F88 %30.36 in6.2 miWSW (250°)1.2 mphMostly Cloudy
3:30 AM51.8 °F48.2 °F88 %30.36 in6.2 miVariable1.2 mphMostly Cloudy
4:00 AM48.2 °F46.4 °F93 %30.36 in6.2 miSouth (170°)6.9 mph
4:30 AM48.2 °F46.4 °F93 %30.36 in6.2 miSSE (160°)2.3 mphFogFog
5:00 AM50.0 °F48.2 °F94 %30.36 in6.2 miCalmFogFog
5:30 AM44.6 °F42.8 °F93 %30.36 in0.2 miCalmFogFog
6:00 AM44.6 °F42.8 °F93 %30.36 in0.1 miSE (140°)2.3 mphFogFog
6:30 AM46.4 °F44.6 °F93 %30.36 in0.2 miCalmFogFog
7:00 AM45.0 °F44.0 °F95 %30.40 in4.0 miSSE (150°)2.3 mphClear
7:00 AM44.6 °F44.6 °F100 %30.36 in5.6 miSSE (150°)2.3 mphOvercast
7:30 AM46.4 °F46.4 °F100 %30.39 in6.2 miSouth (190°)3.5 mphOvercast
8:00 AM46.4 °F46.4 °F100 %30.39 in6.2 miSouth (180°)4.6 mphOvercast
8:30 AM46.4 °F44.6 °F93 %30.39 in6.2 miSouth (170°)3.5 mphRainLight Rain
9:00 AM46.4 °F44.6 °F93 %30.39 in6.2 miSSW (200°)4.6 mph
9:30 AM48.2 °F44.6 °F87 %30.39 in6.2 miSouth (180°)4.6 mph
10:00 AM50.0 °F46.4 °F87 %30.39 in6.2 miSouth (190°)6.9 mph
10:30 AM51.8 °F48.2 °F88 %30.39 in6.2 miSouth (190°)5.8 mph
11:00 AM53.6 °F48.2 °F82 %30.42 in6.2 miSouth (180°)3.5 mph
11:30 AM55.4 °F48.2 °F77 %30.42 in6.2 miSSE (160°)4.6 mph
12:00 PM57.2 °F48.2 °F72 %30.39 in6.2 miSouth (190°)5.8 mph
12:30 PM59.0 °F48.2 °F67 %30.39 in6.2 miSSW (210°)6.9 mphOvercast
1:00 PM62.0 °F51.0 °F57 %30.39 in16.0 miWest (270°)8.1 mphClear
1:00 PM62.6 °F50.0 °F63 %30.39 in6.2 miWest (270°)8.1 mph
1:30 PM60.8 °F51.8 °F72 %30.39 in6.2 miNW (310°)12.7 mphOvercast
2:00 PM60.8 °F51.8 °F72 %30.39 in6.2 miNorthMostly Cloudy
2:30 PM60.8 °F53.6 °F77 %30.36 in6.2 miWNW (300°)10.4 mphOvercast
3:00 PM60.8 °F53.6 °F77 %30.36 in6.2 miWest (280°)12.7 mphMostly Cloudy
3:30 PM60.8 °F53.6 °F77 %30.36 in6.2 miWest (270°)8.1 mphMostly Cloudy
4:00 PM60.8 °F53.6 °F77 %30.36 in6.2 miWNW (300°)8.1 mphMostly Cloudy
4:30 PM60.8 °F51.8 °F72 %30.36 in6.2 miWest (280°)8.1 mphMostly Cloudy
5:00 PM60.8 °F53.6 °F77 %30.33 in6.2 miWest (260°)8.1 mphMostly Cloudy
5:30 PM60.8 °F53.6 °F77 %30.33 in6.2 miWNW (290°)5.8 mph
6:00 PM59.0 °F51.8 °F77 %30.33 in6.2 miWNW (290°)6.9 mphMostly Cloudy
6:30 PM59.0 °F53.6 °F82 %30.33 in6.2 miWest (270°)6.9 mphMostly Cloudy
7:00 PM58.0 °F53.0 °F79 %30.35 in11.0 miWNW (290°)6.9 mphRainLight Rain
7:00 PM59.0 °F53.6 °F82 %30.33 in6.2 miWNW (290°)6.9 mphMostly Cloudy
7:30 PM57.2 °F53.6 °F88 %30.33 in6.2 miNW (320°)6.9 mphRainLight Rain
8:00 PM57.2 °F53.6 °F88 %30.33 in6.2 miNW (320°)4.6 mphOvercast
8:30 PM57.2 °F53.6 °F88 %30.33 in6.2 miNW (310°)4.6 mphMostly Cloudy
9:00 PM57.2 °F53.6 °F88 %30.33 in6.2 miWNW (300°)5.8 mphOvercast
9:30 PM55.4 °F53.6 °F94 %30.33 in6.2 miWNW (300°)5.8 mphMostly Cloudy
10:00 PM55.4 °F53.6 °F94 %30.33 in6.2 miNW (320°)5.8 mphMostly Cloudy
10:30 PM55.4 °F51.8 °F88 %30.30 in6.2 miNW (310°)5.8 mphMostly Cloudy
11:00 PM53.6 °F51.8 °F94 %30.30 in6.2 miNW (320°)3.5 mphMostly Cloudy
11:30 PM55.4 °F51.8 °F88 %30.30 in6.2 miNW (310°)2.3 mphOvercast
Hourly data recorded from LFBF, located miles away from Toulouse, France







STORIES FROM OUR PARTNERS